Regional Weather Roundup
Issued by NWS Lake Charles, LA

Home | Current Version | Previous Version | Text Only | Print | Product List | Glossary On
Versions: 1 2 3 4 5 6 7 8 9 10 11 12 13 14 15 16 17 18 19 20 21 22 23 24 25 26 27 28 29 30 31 32 33 34 35 36 37 38 39 40 41 42 43 44 45 46 47 48 49 50
000
ASUS44 KLCH 210210
RWRLCH
RWRLCH
REGIONAL WEATHER ROUNDUP
NATIONAL WEATHER SERVICE LAKE CHARLES LA
900 PM CDT SAT SEP 20 2014

Note: "fair" indicates few or no clouds below 12,000 feet with no
significant weather and/or obstructions to visibility.


ACROSS SOUTHEAST TEXAS

CITY           SKY/WX    TMP DP  RH WIND       PRES   REMARKS
BEAUMONT       CLEAR     80  74  81 E5        29.95R
BEAUMONT CITY  MOCLDY    77  74  91 S3        29.96R
ORANGE         PTCLDY    78  73  82 NE5       29.97R
JASPER         CLEAR     72  69  90 CALM      29.99R
$$

ACROSS CENTRAL LOUISIANA

CITY           SKY/WX    TMP DP  RH WIND       PRES   REMARKS
LEESVILLE      CLEAR     75  68  78 CALM      29.97R
FULLERTON        N/A     74  69  85 CALM      29.95R
ALEXANDRIA INT CLEAR     74  69  85 CALM      29.96R
ESLER FIELD    CLEAR     74  71  91 CALM      29.98R
DERIDDER         N/A     76  72  88 CALM      29.99R
OAKDALE        CLEAR     72  71  95 CALM      29.97R
OPELOUSAS        N/A     73  71  93 CALM      29.97R
$$

ACROSS SOUTHWEST AND SOUTH CENTRAL LOUISIANA

CITY           SKY/WX    TMP DP  RH WIND       PRES   REMARKS
SULPHUR        CLEAR     79  69  73 NE3       29.96R
LAKE CHARLES   CLEAR     78  70  76 E3        29.96R
CHENNAULT INT  CLEAR     75  70  83 CALM      29.97
CAMERON PHI      N/A     79  72  78 E6        29.98R
DEQUINCY         N/A     73  71  93 CALM      29.97R
JENNINGS         N/A     76  70  80 E3        29.96R
LAFAYETTE      CLEAR     77  74  90 CALM      29.97R
NEW IBERIA     CLEAR     77  70  79 CALM      29.97R
ABBEVILLE        N/A     73  70  92 CALM      29.97R
PATTERSON      CLEAR     73  70  88 E3        29.99R
SALT POINT       N/A     79  72  79 CALM      29.96R
$$

SELECTED SITES ACROSS THE REGION

CITY           SKY/WX    TMP DP  RH WIND       PRES   REMARKS
HOUSTON BUSH   PTCLDY    76  74  93 SE6       29.95R
HOUSTON HOBBY  CLEAR     80  75  84 E5        29.95R
GALVESTON      CLEAR     82  76  81 E10       29.95R
COLLEGE STAT   PTCLDY    81  68  64 E6        29.96R
CONROE         CLEAR     74  71  91 CALM      29.97R
HUNTSVILLE     CLEAR     77  68  73 CALM      29.97R
LUFKIN         CLEAR     77  70  79 CALM      29.97R
SHREVEPORT     CLEAR     78  66  66 CALM      29.96R
MONROE         MOCLDY    75  70  84 CALM      29.98R
NATCHEZ MS     CLEAR     73  70  88 CALM      29.99R
BATON ROUGE    CLEAR     75  70  84 E3        29.97R
N.O. INTL ARPT PTCLDY    81  69  67 E8        29.97R
SLIDELL        CLEAR     76  71  85 CALM      29.97R
$$

MARINE REPORTS

STATION/POSITION TIME  TEMP    WIND        PRES    VSBY  WAVE
                       AIR SEA DIR/SP/G                  HT/PER
                 (UTC) (F)     (DEG/KT/KT) (MB)    (MI)  (FT/S)
BUOY 30 S HIGH I 0200   83 83  100/ 14/ 16 1013.2R         4/ 6
SEA RIM ST PARK  0200   82     110/  7/  8 1014.7R
PORT ARTHUR      0200      83  110/  4/  5 1014.2R
SABINE PASS N    0200   82 82  100/  3/  5 1014.3R
TEXAS POINT      0200   83 83  110/ 10/ 12 1014.4R
CALCASIEU PASS   0200   81 82  110/  6/  7 1015.4R
LK CHARLES BEACH 0200   81 84              1014.5R
MARSH ISLAND     NOT AVBL
FRESH WATER LOCK 0200   79 83   50/  5/  6 1014.4R
AMERADA PASS     0200   77 83   70/  4/  5 1014.5R
$$


USA.gov is the U.S. government's official web portal to all federal, state and local government web resources and services.